FENGYUN 2H AKM (43497 NORAD) Tracking and Keplerian Element Data

This shows tracking and keplerian element data for the satellite.

Feedback or suggestion? Click here.




ElementValue
Catalog43497
NameFENGYUN 2H AKM
Epoch Orbit22
Epoch Day184.7836321
Epoch Year2018
RAAN285.8362
Inclination2.3441
Eccentricity0.00858
Argument of Perigee58.631
Mean Anonmoly302.7243
Mean Motion1.0005123
Decay Rate-1.16E-06
L11 43497U 18050C 18184.78363210 -.00000116 00000-0 00000-0 0 9992
L22 43497 2.3441 285.8362 0085800 58.6310 302.7243 1.00051230 228

Live tracking and technical data element details for FENGYUN 2H AKM (NORAD 43497). FENGYUN 2H AKM can be tracked NOW for your location showing map with azimuth and elevation plus other details from your city location.

Track the satellite on the map from your city or location and see movement details for azimuth, elevation, latitude, longitude, range, height, and movement on the map or in text.







IsCatalogInMostPopularTable: catalog: 43497, numindb: 11
Update: records affected: 1



GetName: 43497 FENGYUN 2H AKM

Hit Count: updated at: Wed, 18 Jul 2018 20:29:40 GMT